Date String (YYYY-MM-DD hh:mm:ss) UTC,Instrument flags,Ambient pressure (hPa),Sample flow (lpm),Bypass flow (lpm),Sample temperature (°C),Ambient temperature (°C),ASC tube jacket temperature (°C),LED temperature (°C),Box temperature (°C),Sample RH (%),Span deviation,Mass concentration (μg/m³),Mass concentration (μg/m³),Mass concentration (μg/m³)
DateTimeUTC,F1_M11,P_M11,Q1_M11,Q2_M11,T1_M11,T2_M11,T3_M11,T4_M11,T5_M11,U1_M11,ZSPAN_M11,X0_M11,X2_M11,X1_M11
2022-07-11 14:00:00,,0834.7,5.00,0.00,29.9,28.5,00.0,38.7,31.8,30.3,0000.0,0020.28,0006.92,0005.20
2022-07-11 14:01:00,,0834.7,4.99,0.00,29.9,28.6,00.0,38.7,31.8,30.3,0000.0,0021.79,0006.95,0005.19
2022-07-11 14:02:00,,0834.7,5.00,0.00,29.9,28.6,00.0,38.7,31.8,30.4,0000.0,0022.05,0006.91,0005.18
2022-07-11 14:03:00,,0834.7,5.00,0.00,29.9,28.7,00.0,38.7,31.9,30.4,0000.0,0022.26,0006.89,0005.18
2022-07-11 14:04:00,,0834.8,5.00,0.00,29.9,28.8,00.0,38.7,31.9,30.4,0000.0,0022.34,0006.86,0005.18
2022-07-11 14:05:00,,0834.8,5.00,0.00,30.0,28.8,00.0,38.7,31.9,30.3,0000.0,0023.03,0006.85,0005.18
2022-07-11 14:06:00,,0834.9,5.00,0.00,30.0,28.9,00.0,38.7,31.9,30.3,0000.0,0022.65,0006.84,0005.20
2022-07-11 14:07:00,,0835.0,5.00,0.00,30.0,28.9,00.0,38.7,31.9,30.2,0000.0,0021.47,0006.81,0005.20
2022-07-11 14:08:00,,0834.9,5.00,0.00,30.0,29.0,00.0,38.7,32.0,30.1,0000.0,0021.03,0006.79,0005.20
2022-07-11 14:09:00,,0835.0,4.99,0.00,30.0,29.0,00.0,38.7,32.0,30.1,0000.0,0020.95,0006.80,0005.19
2022-07-11 14:10:00,,0835.0,4.99,0.00,30.1,29.1,00.0,38.8,32.0,30.1,0000.0,0019.80,0006.75,0005.20
2022-07-11 14:11:00,,0835.1,5.00,0.00,30.1,29.1,00.0,38.8,32.0,30.2,0000.0,0018.25,0006.73,0005.19
2022-07-11 14:12:00,,0835.1,5.01,0.00,30.1,29.1,00.0,38.8,32.1,30.1,0000.0,0016.57,0006.71,0005.20
2022-07-11 14:13:00,,0835.1,5.02,0.00,30.1,29.2,00.0,38.8,32.1,30.0,0000.0,0015.28,0006.69,0005.20
2022-07-11 14:14:00,,0835.1,5.00,0.00,30.2,29.2,00.0,38.9,32.1,30.0,0000.0,0015.35,0006.65,0005.20
2022-07-11 14:15:00,,0835.2,5.00,0.00,30.2,29.2,00.0,38.9,32.1,29.9,0000.0,0015.57,0006.64,0005.20
2022-07-11 14:16:00,,0835.1,4.99,0.00,30.2,28.8,00.0,38.8,32.1,29.9,0000.0,0014.75,0006.54,0005.20
2022-07-11 14:17:00,,0835.1,5.00,0.00,30.2,28.1,00.0,38.8,32.0,29.8,0000.0,0014.27,0006.48,0005.21
2022-07-11 14:18:00,,0835.2,5.00,0.00,30.1,27.7,00.0,38.8,31.9,29.9,0000.0,0014.33,0006.47,0005.21
2022-07-11 14:19:00,,0835.1,5.01,0.00,30.0,27.7,00.0,38.8,31.7,30.1,0000.0,0014.57,0006.49,0005.21
2022-07-11 14:20:00,,0835.2,4.99,0.00,30.0,27.8,00.0,38.8,31.7,30.1,0000.0,0015.15,0006.47,0005.22
2022-07-11 14:21:00,,0835.2,5.01,0.00,29.9,27.9,00.0,38.7,31.7,30.2,0000.0,0015.32,0006.50,0005.22
2022-07-11 14:22:00,,0835.2,5.00,0.00,29.9,28.0,00.0,38.7,31.7,30.3,0000.0,0016.17,0006.53,0005.23
2022-07-11 14:23:00,,0835.2,5.00,0.00,29.9,28.1,00.0,38.7,31.7,30.4,0000.0,0016.18,0006.47,0005.23
2022-07-11 14:24:00,,0835.2,5.00,0.00,29.9,28.3,00.0,38.7,31.7,30.4,0000.0,0016.05,0006.44,0005.23
2022-07-11 14:25:00,,0835.2,5.00,0.00,29.9,28.4,00.0,38.7,31.8,30.3,0000.0,0015.16,0006.45,0005.24
2022-07-11 14:26:00,,0835.3,5.00,0.00,29.9,28.5,00.0,38.7,31.8,30.3,0000.0,0014.42,0006.43,0005.24
2022-07-11 14:27:00,,0835.3,5.00,0.00,29.9,28.6,00.0,38.7,31.8,30.2,0000.0,0014.28,0006.45,0005.26
2022-07-11 14:28:00,,0835.3,5.01,0.00,29.9,28.6,00.0,38.7,31.8,30.3,0000.0,0015.28,0006.48,0005.26
2022-07-11 14:29:00,,0835.3,5.00,0.00,30.0,28.7,00.0,38.7,31.9,30.2,0000.0,0015.53,0006.48,0005.29
2022-07-11 14:30:00,,0835.3,5.00,0.00,30.0,28.8,00.0,38.7,31.9,30.0,0000.0,0015.13,0006.42,0005.31
2022-07-11 14:31:00,,0835.4,4.99,0.00,30.0,28.8,00.0,38.7,31.9,30.1,0000.0,0014.29,0006.42,0005.33
2022-07-11 14:32:00,,0835.4,5.00,0.00,30.0,28.9,00.0,38.7,31.9,30.0,0000.0,0014.64,0006.45,0005.34
2022-07-11 14:33:00,,0835.4,5.00,0.00,30.0,28.9,00.0,38.7,32.0,30.0,0000.0,0014.26,0006.46,0005.36
2022-07-11 14:34:00,,0835.4,5.00,0.00,30.0,29.0,00.0,38.8,32.0,30.0,0000.0,0014.43,0006.48,0005.37
2022-07-11 14:35:00,,0835.4,5.00,0.00,30.1,29.0,00.0,38.8,32.0,30.0,0000.0,0015.54,0006.57,0005.39
2022-07-11 14:36:00,,0835.4,4.99,0.00,30.1,29.0,00.0,38.8,32.0,30.0,0000.0,0015.99,0006.61,0005.42
2022-07-11 14:37:00,,0835.3,5.00,0.00,30.1,29.1,00.0,38.8,32.0,29.9,0000.0,0016.18,0006.66,0005.43
2022-07-11 14:38:00,,0835.3,5.00,0.00,30.1,29.1,00.0,38.8,32.0,29.8,0000.0,0016.47,0006.69,0005.44
2022-07-11 14:39:00,,0835.4,5.00,0.00,30.1,29.1,00.0,38.8,32.1,29.8,0000.0,0016.40,0006.73,0005.46
2022-07-11 14:40:00,,0835.4,4.99,0.00,30.2,29.2,00.0,38.9,32.1,29.8,0000.0,0015.89,0006.74,0005.48
2022-07-11 14:41:00,,0835.5,5.00,0.00,30.2,29.2,00.0,38.9,32.1,29.8,0000.0,0016.48,0006.80,0005.50
2022-07-11 14:42:00,,0835.5,5.02,0.00,30.2,29.2,00.0,38.9,32.1,29.7,0000.0,0017.62,0006.78,0005.54
2022-07-11 14:43:00,,0835.5,5.00,0.00,30.2,29.2,00.0,38.9,32.1,29.7,0000.0,0018.05,0006.76,0005.57
2022-07-11 14:44:00,,0835.5,5.00,0.00,30.2,29.3,00.0,38.9,32.2,29.6,0000.0,0017.77,0006.80,0005.60
2022-07-11 14:45:00,,0835.5,5.00,0.00,30.3,29.3,00.0,38.9,32.2,29.4,0000.0,0017.06,0006.86,0005.66
2022-07-11 14:46:00,,0835.6,5.00,0.00,30.3,29.3,00.0,39.0,32.2,29.3,0000.2,0016.31,0006.86,0005.72
2022-07-11 14:47:00,,0835.5,5.00,0.00,30.3,29.3,00.0,39.0,32.2,29.2,0000.3,0016.86,0006.92,0005.78
2022-07-11 14:48:00,,0835.5,5.00,0.00,30.3,29.4,00.0,39.0,32.2,29.1,0000.4,0017.45,0007.03,0005.86
2022-07-11 14:49:00,,0835.5,5.00,0.00,30.3,29.4,00.0,39.0,32.2,29.0,0000.3,0017.43,0007.11,0005.94
2022-07-11 14:50:00,,0835.5,5.00,0.00,30.4,29.4,00.0,39.0,32.3,29.0,0000.4,0016.93,0007.14,0006.01
2022-07-11 14:51:00,,0835.5,4.99,0.00,30.4,29.4,00.0,39.0,32.3,29.1,0000.9,0017.05,0007.26,0006.06
2022-07-11 14:52:00,,0835.5,5.00,0.00,30.4,29.4,00.0,39.1,32.3,29.1,0000.2,0016.71,0007.31,0006.11
2022-07-11 14:53:00,,0835.5,5.00,0.00,30.4,29.5,00.0,39.1,32.3,29.2,-000.1,0016.86,0007.36,0006.15
2022-07-11 14:54:00,,0835.5,4.99,0.00,30.4,29.5,00.0,39.1,32.3,29.2,-000.2,0016.64,0007.37,0006.19
2022-07-11 14:55:00,,0835.5,5.00,0.00,30.4,29.5,00.0,39.1,32.3,29.2,-000.2,0017.69,0007.41,0006.23
2022-07-11 14:56:00,,0835.5,5.00,0.00,30.4,29.0,00.0,39.1,32.3,29.0,-000.8,0019.30,0007.40,0006.25
2022-07-11 14:57:00,,0835.5,5.00,0.00,30.4,28.1,00.0,39.1,32.1,29.1,-000.5,0020.18,0007.42,0006.25
2022-07-11 14:58:00,,0835.5,5.00,0.00,30.3,27.8,00.0,39.0,32.0,29.2,-000.7,0019.86,0007.38,0006.23
2022-07-11 14:59:00,,0835.5,5.01,0.00,30.2,27.7,00.0,39.0,31.9,29.3,-000.7,0019.66,0007.32,0006.21
